Home   Weather   Germany   Stassfurt   Past weeks
Flag for Germany

Past Weather in Stassfurt, Saxony-Anhalt, Germany — Yesterday and Last 2 Weeks

Currently: 57 °F. Clear. (Weather station: Leipzig-Schkeuditz, Germany). See more current weather

Past Weather in Stassfurt — Graph

°F

Stassfurt Temperature Yesterday

Maximum temperature yesterday: 75 °F (at 11:50 am)
Minimum temperature yesterday: 59 °F (at 11:20 pm)
Average temperature yesterday: 67 °F

High & Low Weather Summary for the Past Weeks

 TemperatureHumidityPressure
High81 °F (Jun 4, 2:50 pm)100% (May 30, 5:20 am)30.33 "Hg (May 30, 5:20 am)
Low43 °F (May 31, 4:20 am)31% (May 31, 6:50 pm)29.98 "Hg (Jun 12, 11:20 am)
Average65 °F71%30.13 "Hg
* Reported May 29 9:20 pm — Jun 13 9:20 pm, Stassfurt. Weather by CustomWeather, © 2021

Note: Actual official high and low records may vary slightly from our data, if they occured in-between our weather recording intervals... More about our weather records

Stassfurt Weather History for the Previous 24 Hours

Scroll right to see more
 ConditionsComfort  
Time TempWeatherWind HumidityBarometerVisibility
9:20 pm
Sun, Jun 13
59 °FSunny.3 mph72%30.27 "Hg10 mi
8:50 pm63 °FSunny.6 mph64%30.27 "Hg10 mi
8:20 pm64 °FSunny.6 mph56%30.27 "Hg10 mi
7:50 pm66 °FSunny.7 mph52%30.27 "Hg10 mi
7:20 pm66 °FPassing clouds.9 mph52%30.27 "HgN/A
6:50 pm68 °FPassing clouds.7 mph49%30.27 "HgN/A
6:20 pm66 °FSunny.13 mph49%30.27 "Hg10 mi
5:50 pm66 °FSunny.13 mph49%30.30 "Hg10 mi
5:20 pm64 °FPassing clouds.14 mph52%30.30 "HgN/A
4:50 pm64 °FPassing clouds.13 mph52%30.30 "HgN/A
4:20 pm64 °FPassing clouds.14 mph52%30.30 "HgN/A
3:50 pm64 °FScattered clouds.13 mph52%30.30 "HgN/A
3:20 pm63 °FScattered clouds.14 mph56%30.30 "HgN/A
2:50 pm63 °FScattered clouds.14 mph56%30.30 "HgN/A
2:20 pm61 °FPartly sunny.14 mph55%30.30 "HgN/A
1:50 pm61 °FPartly sunny.13 mph59%30.30 "HgN/A
1:20 pm59 °FScattered clouds.14 mph59%30.30 "HgN/A
12:50 pm61 °FPartly sunny.14 mph55%30.30 "HgN/A
12:20 pm59 °FPartly sunny.14 mph59%30.30 "HgN/A
11:50 am61 °FPassing clouds.16 mph59%30.30 "HgN/A
11:20 am59 °FPartly sunny.12 mph63%30.30 "HgN/A
10:50 am57 °FMore clouds than sun.12 mph67%30.30 "HgN/A
10:20 am57 °FBroken clouds.13 mph67%30.30 "HgN/A
9:50 am57 °FPassing clouds.13 mph67%30.30 "HgN/A
9:20 am55 °FBroken clouds.13 mph77%30.27 "HgN/A
8:50 am55 °FPartly sunny.12 mph72%30.27 "HgN/A
8:20 am54 °FPartly sunny.14 mph77%30.27 "HgN/A
7:50 am54 °FPartly sunny.13 mph77%30.27 "HgN/A
7:20 am54 °FPartly sunny.12 mph82%30.24 "HgN/A
6:50 am54 °FPartly sunny.12 mph82%30.24 "HgN/A
6:20 am52 °FPassing clouds.8 mph88%30.24 "HgN/A
5:50 am52 °FScattered clouds.9 mph82%30.24 "HgN/A
5:20 am52 °FScattered clouds.10 mph82%30.21 "HgN/A
4:50 am52 °FPassing clouds.9 mph88%30.21 "HgN/A
4:20 am50 °FPassing clouds.9 mph88%30.21 "HgN/A
3:50 am52 °FPassing clouds.10 mph82%30.21 "HgN/A
3:20 am52 °FPassing clouds.10 mph82%30.18 "HgN/A
2:50 am54 °FClear.12 mph77%30.18 "Hg10 mi
2:20 am55 °FClear.12 mph77%30.18 "Hg10 mi
1:50 am55 °FClear.13 mph72%30.18 "Hg10 mi
1:20 am55 °FClear.14 mph72%30.15 "Hg10 mi
12:50 am55 °FClear.10 mph72%30.15 "Hg10 mi
12:20 am57 °FClear.9 mph67%30.15 "Hg10 mi
11:50 pm
Sat, Jun 12
59 °FClear.9 mph59%30.12 "Hg10 mi
11:20 pm59 °FClear.12 mph63%30.12 "Hg10 mi
10:50 pm61 °FClear.14 mph59%30.12 "Hg10 mi
10:20 pm61 °FClear.15 mph63%30.12 "Hg10 mi
Weather by CustomWeather, © 2021

See weather overview